When you browse on this site, cookies collect data to enhance your experience and personalize the content and advertising you see.
Visit our Privacy Policy to learn more. By continuing to use the site, you agree to this use of cookies and data.
EN

Hourly Weather Gogolinek

Today, 20 September, Sunday

Time Temperature Precipitation Wind Pressure Humidity
00:00 +12°C° 0 mm 1 mps 757 mmHg 55%
01:00 +12°C° 0 mm 1 mps 757 mmHg 56%
02:00 +12°C° 0 mm 1 mps 757 mmHg 57%
03:00 +12°C° 0 mm 1 mps 757 mmHg 57%
04:00 +10°C° 0 mm 2 mps 757 mmHg 57%
05:00 +12°C° 0 mm 2 mps 757 mmHg 59%
06:00 +12°C° 0 mm 2 mps 757 mmHg 60%
07:00 +12°C° 0 mm 2 mps 757 mmHg 62%
08:00 +14°C° 0 mm 2 mps 757 mmHg 56%
09:00 +16°C° 0 mm 2 mps 757 mmHg 51%
10:00 +18°C° 0 mm 2 mps 757 mmHg 45%
11:00 +19°C° 0 mm 3 mps 757 mmHg 42%
12:00 +20°C° 0 mm 3 mps 756 mmHg 38%
13:00 +21°C° 0 mm 3 mps 756 mmHg 35%
14:00 +21°C° 0 mm 2 mps 756 mmHg 36%
15:00 +21°C° 0 mm 2 mps 755 mmHg 37%
16:00 +20°C° 0 mm 2 mps 755 mmHg 38%
17:00 +18°C° 0 mm 2 mps 755 mmHg 43%
18:00 +16°C° 0 mm 1 mps 755 mmHg 47%
19:00 +14°C° 0 mm 1 mps 755 mmHg 52%
20:00 +14°C° 0 mm 1 mps 755 mmHg 53%
21:00 +13°C° 0 mm 1 mps 755 mmHg 55%
22:00 +13°C° 0 mm 2 mps 755 mmHg 56%
23:00 +12°C° 0 mm 1 mps 755 mmHg 58%

Tomorrow, 21 September, Monday

Time Temperature Precipitation Wind Pressure Humidity
00:00 +12°C° 0 mm 1 mps 755 mmHg 60%
01:00 +11°C° 0 mm 1 mps 755 mmHg 61%
02:00 +11°C° 0 mm 1 mps 755 mmHg 63%
03:00 +11°C° 0 mm 1 mps 754 mmHg 65%
04:00 +10°C° 0 mm 1 mps 754 mmHg 68%
05:00 +11°C° 0 mm 1 mps 754 mmHg 67%
06:00 +10°C° 0 mm 2 mps 755 mmHg 67%
07:00 +12°C° 0 mm 2 mps 755 mmHg 67%
08:00 +14°C° 0 mm 2 mps 755 mmHg 62%
09:00 +16°C° 0 mm 2 mps 755 mmHg 56%
10:00 +19°C° 0 mm 2 mps 754 mmHg 51%
11:00 +20°C° 0 mm 2 mps 754 mmHg 48%
12:00 +21°C° 0 mm 2 mps 754 mmHg 46%
13:00 +23°C° 0 mm 2 mps 754 mmHg 44%
14:00 +23°C° 0 mm 2 mps 753 mmHg 44%
15:00 +23°C° 0 mm 2 mps 753 mmHg 45%
16:00 +23°C° 0 mm 2 mps 753 mmHg 46%
17:00 +21°C° 0 mm 1 mps 753 mmHg 52%
18:00 +20°C° 0 mm 1 mps 752 mmHg 58%
19:00 +18°C° 0 mm 1 mps 752 mmHg 64%
20:00 +16°C° 0 mm 1 mps 752 mmHg 65%
21:00 +16°C° 0 mm 1 mps 752 mmHg 66%
22:00 +15°C° 0 mm 1 mps 752 mmHg 67%
23:00 +15°C° 0 mm 1 mps 752 mmHg 68%

Day after tomorrow, 22 September, Tuesday

Time Temperature Precipitation Wind Pressure Humidity
00:00 +15°C° 0 mm 1 mps 752 mmHg 68%
01:00 +15°C° 0 mm 1 mps 752 mmHg 69%
02:00 +15°C° 0 mm 1 mps 751 mmHg 70%
03:00 +14°C° 0 mm 1 mps 751 mmHg 70%
04:00 +14°C° 0 mm 2 mps 751 mmHg 71%
05:00 +15°C° 0 mm 2 mps 751 mmHg 71%
06:00 +15°C° 0 mm 2 mps 751 mmHg 70%
07:00 +16°C° 0 mm 2 mps 751 mmHg 70%
08:00 +18°C° 0 mm 2 mps 751 mmHg 63%
09:00 +20°C° 0 mm 3 mps 750 mmHg 56%
10:00 +22°C° 0 mm 3 mps 750 mmHg 49%
11:00 +25°C° 0 mm 4 mps 750 mmHg 45%
12:00 +26°C° 0 mm 4 mps 750 mmHg 42%
13:00 +27°C° 0 mm 5 mps 749 mmHg 39%
14:00 +27°C° 0 mm 5 mps 749 mmHg 40%
15:00 +27°C° 0 mm 4 mps 748 mmHg 41%
16:00 +27°C° 0 mm 4 mps 748 mmHg 43%
17:00 +25°C° 0 mm 4 mps 748 mmHg 47%
18:00 +22°C° 0 mm 3 mps 747 mmHg 52%
19:00 +20°C° 0 mm 3 mps 747 mmHg 56%
20:00 +20°C° 0 mm 3 mps 747 mmHg 58%
21:00 +19°C° 0 mm 3 mps 747 mmHg 60%
22:00 +18°C° 0 mm 3 mps 747 mmHg 61%
23:00 +18°C° 0 mm 3 mps 746 mmHg 63%

23 September, Wednesday

Time Temperature Precipitation Wind Pressure Humidity
00:00 +17°C° 0 mm 3 mps 746 mmHg 64%
01:00 +17°C° 0 mm 3 mps 746 mmHg 66%
02:00 +17°C° 0 mm 3 mps 746 mmHg 66%
03:00 +16°C° 0 mm 2 mps 745 mmHg 66%
04:00 +16°C° 0 mm 2 mps 745 mmHg 67%
05:00 +16°C° 0 mm 2 mps 745 mmHg 66%
06:00 +17°C° 0 mm 3 mps 745 mmHg 65%
07:00 +17°C° 0 mm 3 mps 745 mmHg 64%
08:00 +19°C° 0 mm 3 mps 745 mmHg 59%
09:00 +21°C° 0 mm 3 mps 745 mmHg 53%
10:00 +24°C° 0 mm 3 mps 744 mmHg 48%
11:00 +25°C° 0 mm 4 mps 744 mmHg 47%
12:00 +25°C° 0 mm 4 mps 744 mmHg 47%
13:00 +26°C° 0 mm 4 mps 744 mmHg 47%
14:00 +26°C° 0 mm 4 mps 744 mmHg 49%
15:00 +25°C° 0 mm 3 mps 744 mmHg 52%
16:00 +25°C° 0 mm 3 mps 743 mmHg 55%
17:00 +24°C° 0 mm 3 mps 743 mmHg 60%
18:00 +21°C° 0 mm 2 mps 743 mmHg 65%
19:00 +20°C° 0 mm 2 mps 743 mmHg 70%
20:00 +20°C° 0 mm 2 mps 743 mmHg 72%
21:00 +19°C° 0 mm 2 mps 743 mmHg 74%
22:00 +19°C° 0 mm 2 mps 743 mmHg 77%
23:00 +18°C° 0 mm 2 mps 743 mmHg 79%

24 September, Thursday

Time Temperature Precipitation Wind Pressure Humidity
00:00 +18°C° 0 mm 2 mps 743 mmHg 81%
01:00 +17°C° 0 mm 2 mps 743 mmHg 84%
02:00 +17°C° 0 mm 2 mps 743 mmHg 84%
03:00 +16°C° 0 mm 2 mps 743 mmHg 85%
04:00 +16°C° 0 mm 2 mps 743 mmHg 86%
05:00 +16°C° 0 mm 2 mps 743 mmHg 85%
06:00 +17°C° 0 mm 3 mps 744 mmHg 83%
07:00 +17°C° 0 mm 3 mps 744 mmHg 82%
08:00 +19°C° 0 mm 3 mps 744 mmHg 75%
09:00 +20°C° 0 mm 3 mps 744 mmHg 68%
10:00 +22°C° 0 mm 4 mps 745 mmHg 61%
11:00 +23°C° 0 mm 4 mps 745 mmHg 58%
12:00 +25°C° 0 mm 4 mps 745 mmHg 55%
13:00 +26°C° 0 mm 4 mps 745 mmHg 51%
14:00 +25°C° 0 mm 3 mps 745 mmHg 53%
15:00 +25°C° 0 mm 3 mps 745 mmHg 54%
16:00 +25°C° 0 mm 2 mps 745 mmHg 56%
17:00 +23°C° 0.1 mm 2 mps 745 mmHg 62%
18:00 +21°C° 0.1 mm 1 mps 745 mmHg 68%
19:00 +18°C° 0.1 mm 0 mps 745 mmHg 74%
20:00 +19°C° 0.2 mm 1 mps 745 mmHg 76%
21:00 +19°C° 0.2 mm 1 mps 745 mmHg 79%
22:00 +18°C° 0.2 mm 1 mps 745 mmHg 82%
23:00 +17°C° 0 mm 2 mps 744 mmHg 83%

25 September, Friday

Time Temperature Precipitation Wind Pressure Humidity
00:00 +17°C° 0 mm 2 mps 743 mmHg 85%
01:00 +16°C° 0 mm 3 mps 743 mmHg 87%
02:00 +16°C° 0 mm 3 mps 742 mmHg 87%
03:00 +16°C° 0 mm 3 mps 741 mmHg 87%
04:00 +15°C° 0 mm 4 mps 740 mmHg 86%
05:00 +15°C° 0 mm 4 mps 739 mmHg 85%
06:00 +16°C° 0 mm 5 mps 738 mmHg 83%
07:00 +16°C° 0 mm 5 mps 738 mmHg 81%
08:00 +19°C° 0 mm 6 mps 737 mmHg 73%
09:00 +21°C° 0 mm 7 mps 736 mmHg 65%
10:00 +23°C° 0 mm 8 mps 736 mmHg 57%
11:00 +22°C° 0.1 mm 8 mps 736 mmHg 60%
12:00 +22°C° 0.1 mm 8 mps 736 mmHg 62%
13:00 +21°C° 0.1 mm 7 mps 736 mmHg 65%
14:00 +18°C° 0.8 mm 7 mps 736 mmHg 72%
15:00 +16°C° 0.8 mm 6 mps 736 mmHg 79%
16:00 +14°C° 0.8 mm 6 mps 737 mmHg 86%
17:00 +13°C° 0 mm 5 mps 737 mmHg 86%
18:00 +13°C° 0 mm 4 mps 737 mmHg 86%
19:00 +13°C° 0 mm 4 mps 738 mmHg 86%
20:00 +12°C° 0 mm 3 mps 738 mmHg 86%
21:00 +13°C° 0 mm 2 mps 738 mmHg 87%
22:00 +12°C° 0 mm 2 mps 739 mmHg 88%
23:00 +12°C° 0 mm 2 mps 738 mmHg 87%
Show more